JA7KUB Weather Reports


Display with metric or nautical units.
time (UTC)temp
F
wind
direction
speed
MPH
gust
MPH
rain 1hr
in
rain 24hr
in
rain mn
in
humidity
%
barometer
mb
20260508203315 46 304 0.0 4.0 0.00 2.68 0.00 80 1016.9
20260508200333 50 250 0.0 7.0 0.00 2.68 0.00 69 1016.4
20260508193334 50 316 3.0 9.0 0.00 2.68 0.00 65 1015.9
20260508190332 50 244 5.0 18.0 0.00 2.68 0.00 64 1015.9
20260508183331 51 300 8.0 18.0 0.00 2.68 0.00 63 1015.4
20260508180329 51 281 4.0 15.0 0.00 2.68 0.00 64 1015.3
20260508173349 51 293 4.0 13.0 0.00 2.68 0.00 65 1015.1
20260508170327 51 340 8.0 21.0 0.00 2.68 0.00 65 1014.8
20260508163347 51 296 5.0 15.0 0.00 2.68 0.00 69 1014.9
20260508160323 51 299 8.0 20.0 0.00 2.68 0.00 68 1015.1
20260508153323 52 318 10.0 24.0 0.00 2.68 0.00 71 1014.9
20260508150321 51 328 10.0 20.0 0.00 2.68 0.54 78 1014.9
20260508143342 51 311 5.0 13.0 0.00 2.68 0.54 83 1014.8
20260508140319 52 300 5.0 12.0 0.00 2.68 0.54 84 1014.7
20260508133318 51 312 6.0 16.0 0.04 2.68 0.54 87 1014.8
20260508130316 52 269 2.0 10.0 0.04 2.68 0.54 91 1014.7
20260508123316 53 165 5.0 13.0 0.00 2.64 0.53 95 1014.9
20260508120315 53 160 1.0 9.0 0.00 2.64 0.53 97 1015.2
20260508113314 54 231 3.0 8.0 0.12 2.64 0.53 97 1014.9
20260508110353 55 316 1.0 6.0 0.63 2.64 0.53 98 1014.2
20260508103332 56 211 0.0 2.0 1.26 2.52 0.50 98 1014.0
20260508100330 56 309 0.0 3.0 1.65 1.97 0.39 97 1014.5
20260508093350 57 273 3.0 7.0 1.14 1.26 0.25 96 1013.8
20260508090327 59 272 2.0 7.0 0.24 0.31 0.06 91 1013.0
20260508083347 61 261 0.0 5.0 0.04 0.12 0.02 90 1013.0
20260508080323 65 278 3.0 6.0 0.00 0.08 0.02 86 1013.2
20260508073322 66 111 0.0 0.0 0.00 0.08 0.02 84 1013.5
20260508070320 66 84 1.0 2.0 0.00 0.08 0.02 80 1013.3
20260508063320 66 105 0.0 0.0 0.00 0.08 0.02 83 1014.1
20260508060318 66 78 0.0 1.0 0.00 0.08 0.02 81 1014.1
20260508053318 65 46 0.0 1.0 0.08 0.08 0.02 92 1014.5
20260508050316 64 257 0.0 0.0 0.08 0.08 0.02 92 1015.1
20260508043316 68 252 2.0 4.0 0.00 0.00 0.00 76 1016.2
20260508040353 71 289 1.0 6.0 0.00 0.00 0.00 69 1016.5
20260508033332 72 231 1.0 6.0 0.00 0.00 0.00 66 1016.6
20260508030330 71 37 0.0 3.0 0.00 0.00 0.00 69 1016.4
20260508023330 70 103 0.0 6.0 0.00 0.00 0.00 70 1016.9
20260508020348 71 69 1.0 4.0 0.00 0.00 0.00 66 1016.7
20260508013327 71 290 1.0 4.0 0.00 0.00 0.00 66 1018.0
20260508010325 73 306 0.0 2.0 0.00 0.00 0.00 63 1018.2
20260508003325 74 104 2.0 4.0 0.00 0.00 0.00 54 1018.0
20260508000323 73 289 2.0 6.0 0.00 0.00 0.00 57 1018.4
20260507233343 71 167 0.0 2.0 0.00 0.00 0.00 67 1018.7
20260507230319 69 307 0.0 2.0 0.00 0.00 0.00 72 1019.2
20260507223355 64 96 0.0 0.0 0.00 0.00 0.00 86 1019.4
20260507220352 61 105 0.0 0.0 0.00 0.00 0.00 89 1019.4
20260507213331 57 105 0.0 0.0 0.00 0.00 0.00 94 1019.4
20260507210329 52 105 0.0 0.0 0.00 0.00 0.00 98 1019.4